Location: *
(44.1392°N, 4.8079°E)
Time: 14:00:59
(UTC+00:00)

Lacrosse 5 rocket - Pass Details

Date: 24 October 2021
Orbit: 459 x 633 km, 57.0° (Epoch: 04 December)

Event Time Altitude Azimuth Distance (km) Brightness Sun altitude
Exits shadow 04:51:48 12° 320° (NW) 1,757 3.5 -14.1°
Maximum altitude 04:53:52 16° 352° (N) 1,562 3.5 -13.8°
Drops below altitude 10° 04:56:44 10° 31° (NNE) 1,967 4.5 -13.2°
Sets 04:59:51 0° 53° (NE) 2,899 5.8 -12.7°
